Showing default

IRIDIUM 137, 43076

Orbit data source: Space-Track

IRIDIUM 137, 43076 is a payload satellite owned by Iridium (US) in LEO that was launched on Sat, 23 Dec 2017 UTC via an FALCON 9 launch vehicle from the Air Force Western Test Range (AFWTR). Payload-class satellites include a variety of spacecraft equipped with specific instruments for various scientific and technological missions. These include communications satellites like Starlink; space stations such as the ISS; scientific satellites like the Hubble; Earth observation satellites from companies like Planet Labs, Umbra, and HawkEye 360; GPS; miniature CubeSats for education and research; and military/defense satellites.

Loading next visibility...
Identifier
43076, 2017-083G
Orbit
LEO
Country
Flag of USUS
Related business
Manufacturer
OATK SSG Gilbert
Mission
Operational Commercial Communications
Bus & Motor
ELITEBUS, Unknown motor
Mass
860 kg wet, 700 kg dry
Launch date (UTC)
2017-12-23 (8 years ago)
Launch vehicle
FALCON 9
Launch site
Air Force Western Test Range (AFWTR)
Object type
Payload
Rocket body
Debris
Shape & HBR
Trap Box + 2 Pan, 4.8 m
Radar Cross Section
10.154 m², Large (>1 m²)

Expand to show TLE details & history
Last TLE update: 19 hours ago

TLE from 19 hours ago
0 IRIDIUM 137
1 43076U 17083G   25351.67096487  .00000020  00000-0  42050-7 0  9992
2 43076  86.3963  38.0187 0002545  86.9927 273.1560 14.34217345418158
Epoch: 2025-12-17T16:06Z
TLE epoch observation values (Epoch: 2025-12-17T16:06:11.364Z)
Latitude
-0.00004°
Longitude
69.93386°
Altitude
780.62 km
Speed
7.464 km/s
True Right ascension
02h 32m 04s
True Declination
0° 00' 00"
Sunlit
Object was in full shadow at epoch
Visualization orbit readout
Latitude
Unknown
Longitude
Unknown
Altitude
Unknown
Speed
Unknown
Apparent Right ascension
Unknown
Apparent Declination
Unknown
Sunlit
N/A
Visualization observer readout
Local Sidereal Time
09:27:31
Azimuth
Unknown
Elevation
Unknown
Doppler factor
Unknown
Orbital elements
Apogee altitude
776.453 km
Perigee altitude
772.813 km
Semi-major axis
7,152.77 km
Eccentricity
0.00025
Inclination
86.3963°
RAAN
38.0187°
Arg. of periapsis
86.9927°
True anomaly
273.12688°
Mean anomaly
273.156°
Eccentric anomaly
273.14144°
Mean motion
3.58783 °/min
Orbital period
100.34 mins
BSTAR
4.205e-8
Loading maneuver chart data...
Computing Atmospheric mass density...
Loading historical data...
Loading historical data...
Loading historical data...
Loading historical data...
Loading historical data...
Loading historical data...
Loading historical data...

Documentation

Showing up to 5 results
|